User: anonymous   Login
Location: Unspecified
(0.0000°N, 0.0000°E)
Time: 02:59:44
(UTC+00:00)
Language:

FR-1 - Orbit

View from above orbital plane
View from above orbital plane
View from above satellite
View from above satellite

Ground track
Ground track

The orbit data is extracted from the following two-line orbital elements,

1 01814U 65101A   18171.44832152  .00000112  00000-0  23054-4 0  9996
2 01814  75.8678 317.7936 0005752  96.0542 264.1292 14.66503385648889
Epoch (UTC): 20 June 2018 10:45:34
Eccentricity: 0.0005752
inclination: 75.8678°
perigee height: 668 km
apogee height: 676 km
right ascension of ascending node: 317.7936°
argument of perigee: 96.0542°
revolutions per day: 14.66503385
mean anomaly at epoch: 264.1292°
orbit number at epoch: 64888

The dashed part of the orbit path shows where the satellite is in the earth's shadow,  

DLR